Lapse_Rate
7.0 7.2 7.3 7.5 7.7 7.8 7.7 7.5 6.8 6.9 7.0 6.9 6.8 6.6 5.7 5.9 6.5 6.0 6.3 6.7 6.9 7.0 7.0 7.3 7.5 7.7 7.8 7.7 7.5 7.4 7.3 7.2
7.3 7.4 7.5 7.7 7.8 7.8 7.9 7.8 6.9 6.8 6.7 6.2 6.4 6.6 6.6 6.3 5.4 5.9 5.9 6.0 6.1 6.5 6.7 6.7 6.9 7.2 7.4 7.6 7.3 7.5 7.4 7.1
7.3 7.4 7.7 7.9 7.9 7.9 7.9 7.7 7.0 6.7 6.4 6.4 6.4 6.3 6.1 5.8 5.5 5.3 5.6 5.6 5.7 5.8 5.9 6.3 6.5 7.0 7.2 7.2 7.4 7.4 7.4 7.2
7.3 7.3 7.6 7.5 7.5 7.6 7.5 7.5 7.0 6.7 6.5 6.2 6.0 6.0 5.9 5.8 6.0 5.6 5.6 5.3 5.5 5.8 5.5 5.9 6.4 6.9 7.1 7.2 7.1 7.2 7.3 7.2
7.3 7.2 7.2 7.2 7.4 7.6 7.5 7.3 7.0 6.7 6.4 6.2 6.3 6.2 6.1 5.8 5.9 5.5 5.2 5.4 5.5 5.6 5.8 6.3 6.7 6.9 6.9 6.9 6.9 6.8 7.0 7.0
7.3 7.2 7.0 6.9 7.0 7.1 7.2 7.3 6.9 6.6 6.4 6.5 6.5 6.1 6.1 5.5 5.9 5.6 5.3 5.7 5.5 5.7 6.1 6.4 6.8 6.7 6.8 6.9 6.8 6.7 6.8 6.9
6.8 6.7 6.6 6.6 6.7 6.7 6.7 6.8 6.7 6.4 6.2 6.0 6.1 6.3 6.2 5.8 6.0 6.3 6.4 5.9 6.0 6.5 6.7 6.7 6.9 7.1 7.3 6.9 6.9 6.4 6.5 7.0
6.6 6.6 6.5 6.4 6.3 6.2 6.4 6.5 6.6 6.5 6.1 6.0 6.2 6.3 6.2 6.0 6.0 6.2 6.1 6.2 6.4 6.6 6.8 6.8 6.9 7.1 7.4 7.6 7.3 7.0 6.7 7.1
6.5 6.5 6.3 6.1 6.1 6.1 6.2 6.1 6.2 6.2 6.2 6.3 6.4 6.6 6.6 6.5 6.4 6.4 6.4 6.6 6.6 6.7 6.9 7.0 7.0 7.1 6.8 7.0 7.2 7.2 7.1 7.0
6.6 6.6 6.5 6.5 6.4 6.3 6.4 6.4 6.5 6.4 6.3 6.3 6.3 6.3 6.2 6.2 6.3 6.5 6.7 6.7 6.9 7.0 7.0 7.1 7.1 7.0 7.0 6.9 6.6 6.6 6.8 6.7
6.9 6.9 6.8 6.7 6.8 6.8 6.8 6.7 6.7 6.5 6.5 6.7 6.7 6.7 6.5 6.3 6.3 6.3 6.4 6.5 6.8 7.0 7.0 7.0 6.9 6.8 6.7 6.6 6.6 6.9 6.8 6.5
7.0 6.9 6.8 6.9 6.7 6.6 6.6 6.9 6.9 6.6 6.7 7.0 6.9 6.8 6.8 6.9 7.0 6.8 6.7 6.6 6.6 6.9 7.1 7.1 7.1 7.3 7.4 7.2 6.9 6.6 6.6 6.8
6.8 6.7 6.6 6.7 6.9 6.7 6.9 7.3 7.2 7.0 6.8 6.6 6.8 6.8 7.0 7.0 7.0 6.7 6.6 6.7 6.7 7.0 7.1 7.3 7.3 7.4 7.6 7.6 7.4 6.9 6.6 6.5
6.5 6.4 6.4 6.4 6.3 6.6 6.9 6.9 6.5 6.2 6.5 6.6 6.7 6.7 7.0 7.0 6.9 6.7 6.8 7.0 7.1 7.3 7.4 7.5 7.6 7.6 7.7 7.7 7.5 7.0 5.9 5.8
6.8 6.5 6.4 6.5 6.8 6.7 6.8 6.7 6.5 6.5 6.3 6.6 6.8 6.9 6.9 7.0 7.0 7.2 7.2 7.1 7.1 7.3 7.6 7.8 7.9 7.9 8.0 7.8 7.7 6.7 5.7 5.8
6.8 6.7 6.8 7.0 7.1 7.2 7.2 6.9 6.8 7.0 7.0 6.9 7.0 7.1 7.1 7.1 7.3 7.4 7.5 7.4 7.4 7.5 7.7 7.9 8.0 8.0 8.0 7.9 7.5 6.9 6.1 6.1
6.9 7.0 7.2 7.1 7.0 6.7 6.6 6.6 7.0 7.3 7.2 7.1 7.2 7.1 7.1 7.3 7.4 7.4 7.7 7.7 7.7 7.8 7.9 8.1 8.2 8.0 7.9 7.7 7.4 7.0 6.1 5.9
7.2 7.3 7.2 7.0 7.0 6.9 6.7 6.9 7.3 7.4 7.2 7.2 7.1 6.8 7.2 7.4 7.4 7.5 7.6 7.7 7.9 8.0 8.1 8.0 8.1 7.9 7.6 7.5 7.2 6.9 6.7 6.1
7.3 6.9 6.8 6.8 6.8 6.8 6.9 7.2 7.4 7.4 7.2 7.1 7.0 7.1 7.3 7.4 7.6 7.7 7.7 7.8 8.0 8.2 8.1 8.2 8.3 8.1 7.7 7.3 7.0 6.5 6.4 6.0
Wind_Speed
13 13 11 11 12 12 11 9 11 11 9 9 8 6 10 14 8 10 7 7 6 5 4 4 2 3 3 2 3 4 4 6
12 12 7 4 7 10 13 11 10 10 8 6 6 5 5 5 7 7 7 6 5 4 3 3 2 1 2 3 4 6 4 8
15 14 10 9 9 10 10 10 8 6 6 4 3 5 1 7 6 5 3 9 7 3 2 2 3 1 2 4 5 4 3 7
13 12 11 10 10 11 12 12 12 9 11 8 6 5 4 2 2 3 4 1 3 1 2 1 2 3 3 3 4 5 5 7
9 9 8 8 9 10 12 11 11 9 9 8 5 3 3 2 2 4 5 6 2 3 4 4 4 3 3 3 3 4 4 8
8 7 6 5 7 10 10 11 9 11 10 8 7 6 4 3 5 6 5 6 6 6 5 4 3 4 3 3 3 5 6 4
7 6 5 5 6 8 10 10 10 10 9 10 11 11 6 7 5 4 4 4 3 4 4 3 2 3 3 3 3 4 5 5
5 6 5 5 6 8 8 10 9 7 3 0 2 1 4 6 6 5 6 4 4 6 7 5 3 4 3 2 3 3 4 5
4 3 3 4 5 7 7 8 6 6 5 5 5 6 5 4 4 3 4 4 4 5 6 6 6 5 4 4 2 2 2 3
3 2 1 2 4 6 6 6 6 6 7 5 5 5 6 5 4 4 4 5 4 5 6 5 6 5 5 4 3 4 3 2
1 0 2 3 5 5 7 7 8 6 5 3 3 4 5 4 3 5 5 5 5 5 6 6 5 5 5 3 2 1 1 0
2 2 4 5 6 7 8 7 8 5 3 2 2 2 2 3 4 4 3 4 4 4 5 6 6 7 6 5 4 4 3 3
5 5 5 5 7 6 6 6 5 2 1 2 4 4 2 0 1 2 2 4 3 4 4 5 6 7 7 7 5 4 5 4
7 6 6 7 8 7 4 2 2 2 2 3 5 6 5 4 3 3 3 3 3 3 4 5 7 7 7 6 6 5 4 5
8 8 8 7 8 6 3 4 4 4 4 4 4 4 4 3 3 3 2 2 3 3 3 4 5 6 7 8 8 8 7 5
7 6 7 8 6 2 4 5 6 5 6 5 4 4 4 4 3 3 3 3 3 3 3 4 5 7 6 9 9 8 8 7
4 4 3 2 3 4 5 6 5 5 4 4 4 5 5 4 3 3 3 2 1 2 4 5 6 4 12 14 11 7 7 7
2 1 4 4 5 5 6 4 3 4 4 5 5 4 5 4 4 4 4 3 3 2 4 6 6 8 13 14 13 7 8 7
4 4 5 4 3 4 5 4 4 4 5 4 4 5 4 3 3 4 5 3 3 3 4 5 6 4 12 14 13 8 7 7
Wind_Direction
325 312 299 235 217 197 167 132 138 126 108 103 95 91 96 64 44 66 53 63 61 70 95 114 103 113 119 111 117 86 120 117
349 342 338 173 172 149 133 134 133 133 129 129 123 120 128 79 60 46 46 52 68 89 107 115 112 150 144 142 122 129 128 136
5 9 37 77 93 106 123 115 119 103 92 75 69 118 338 112 114 79 43 36 18 18 29 178 91 201 197 187 170 152 141 174
8 12 29 55 76 93 103 109 101 100 110 112 98 93 74 67 118 152 95 59 269 255 244 118 206 210 205 197 203 191 174 187
25 27 42 66 83 96 104 109 119 139 149 134 144 132 123 213 198 144 161 151 248 288 239 195 181 194 225 216 203 218 206 199
33 35 54 81 115 121 125 128 150 163 162 151 139 131 127 179 178 174 156 163 173 205 226 216 199 201 202 215 208 219 218 230
53 65 87 97 114 130 146 150 161 174 184 173 164 166 164 193 185 168 169 169 189 237 236 238 212 221 230 218 211 223 229 231
81 87 106 125 140 152 161 168 172 185 182 277 8 56 206 208 177 181 183 187 199 213 208 202 212 213 206 237 241 228 221 219
72 87 114 148 170 180 185 187 186 189 193 204 211 218 226 234 221 195 211 216 215 198 206 209 212 203 198 198 213 254 256 262
48 50 232 234 237 225 219 212 221 219 215 219 227 232 238 246 232 223 232 223 218 210 211 210 208 214 223 226 210 194 202 192
95 256 267 238 222 232 239 233 232 230 235 240 256 247 242 249 247 245 238 233 217 205 208 209 201 197 199 203 221 257 248 140
188 280 264 244 243 234 234 230 238 235 219 176 185 212 238 239 245 256 258 254 242 229 216 206 201 195 192 191 187 178 184 153
212 255 277 274 266 270 269 271 269 296 321 131 113 108 103 119 337 325 289 286 283 264 234 224 209 196 190 186 177 172 170 161
234 252 271 278 292 285 283 24 55 65 88 103 86 70 58 38 14 356 347 330 296 262 240 233 216 201 185 174 166 127 134 124
286 290 301 304 295 278 193 127 94 88 76 62 67 66 62 36 11 357 345 314 284 263 244 239 223 188 170 152 140 126 123 112
276 312 315 309 301 198 130 110 96 90 97 99 88 89 83 75 47 24 357 331 306 278 227 199 183 169 162 150 140 129 139 130
298 328 357 4 96 106 87 78 67 72 85 90 83 79 86 84 85 83 77 52 25 197 190 170 159 141 131 130 133 131 146 148
319 105 96 96 93 105 105 95 72 68 64 57 60 66 87 89 96 91 83 89 106 143 143 137 133 135 142 136 134 142 150 152
137 126 139 135 131 105 119 96 72 62 62 62 52 71 86 97 120 113 107 115 129 147 134 124 128 135 141 136 136 139 140 139